User: anonymous   Login
Location: Muenchen
(48.1800°N, 11.5800°E)
Time: 23:39:44
(UTC+02:00)
Language:

Cosmos 2233 Rocket - Orbit

View from above orbital plane
View from above orbital plane
View from above satellite
View from above satellite

Ground track
Ground track

The orbit data is extracted from the following two-line orbital elements,

1 22488U 93008B   16120.25507505  .00000037  00000-0  22046-4 0  9991
2 22488  82.9461  26.4669 0024359 307.4444 215.3037 13.77702345167260
Epoch (UTC): 29 April 2016 06:07:18
Eccentricity: 0.0024359
inclination: 82.9461°
perigee height: 954 km
apogee height: 990 km
right ascension of ascending node: 26.4669°
argument of perigee: 307.4444°
revolutions per day: 13.77702345
mean anomaly at epoch: 215.3037°
orbit number at epoch: 16726

The dashed part of the orbit path shows where the satellite is in the earth's shadow,  

DLR